Port Hope, MI

4:40 AM EST on February 11, 2016 (GMT -0500)
Eastwatch-by-the-Sea | | Change Station
CLOSE
Current Station
Personal Weather Station
Location: Port Hope, MI
Elevation: 565 ft
Nearby Weather Stations

Elev 565 ft 43.95 °N, 82.72 °W | Updated 1 second ago

Partly Cloudy
Partly Cloudy
11.5 °F
Feels Like -2 °F
N
10.3
Wind Variable Wind from NNW
Gusts 12.3 mph

Today
High -- | Low -- °F
--% Chance of Precip.
Yesterday
High -- | Low -- °F
Precip. -- in
Pressure 30.03 in
Visibility 10.0 miles
Clouds Mostly Cloudy 2800 ft
Windchill -2 °F
Dew Point -1 °F
Humidity 57%
Rainfall 0.00 in
Snow Depth Not available.
7:36 AM 5:54 PM
Waxing Crescent, 10% visible
METAR KBAX 110934Z AUTO 30006KT 10SM BKN028 M14/M17 A3003 RMK AO2 T11391169
Pressure 30.03 in
Visibility 10.0 miles
Clouds Mostly Cloudy 2800 ft
Windchill -2 °F
Dew Point -1 °F
Humidity 57%
Rainfall 0.00 in
Snow Depth Not available.
7:36 AM 5:54 PM
Waxing Crescent, 10% visible
METAR KBAX 110934Z AUTO 30006KT 10SM BKN028 M14/M17 A3003 RMK AO2 T11391169

10-Day Weather Forecast

Almanac

Astronomy

Feb. 11, 2016 Rise Set
Actual Time
Civil Twilight
Nautical Twilight
Astronomical Twilight
Moon
Length of Visible Light
Length of Day
Tomorrow will be .
, % of the Moon is Illuminated

Today's Extremes

State Highs State Lows

Community

WunderPhotos

Upload Photos

1,892,030 photos uploaded!

WunderBlog® & News

Nearby

Air Quality

  Air Quality AQ Index Pollutant
Not available.

Snow Depth

Station Depth Elevation

Earthquake Activity

City Distance Mag. Time & Date
Minimum magnitude displayed is 2.5.

Coastal Water Temperatures

Place Temperature

Stations

Nearby Weather Stations

Station Location Temp. Windchill Dew Point Humidity Wind Precip. Elev Updated Type
                   

Watches & Warnings

There are currently no watches in effect.